Location: Unspecified
(43.4680°N, 87.1740°E)
Time: 06:11:57
(UTC+00:00)

Okean 2 - Visible Passes

Search period start: 29 July 2021 00:00
Search period end: 08 August 2021 00:00
Orbit: 560 x 575 km, 82.5° (Epoch: 28 July)

Date Brightness Start Highest point End Pass type
(mag) Time Alt. Az. Time Alt. Az. Time Alt. Az.
29 Jul 3.2 20:19:46 10° N 20:23:58 79° W 20:24:21 70° SSW visible
30 Jul 6.1 18:46:21 10° NE 18:47:55 12° ENE 18:49:07 11° E visible
30 Jul 3.4 20:21:02 10° NNW 20:25:10 62° W 20:25:11 62° W visible
31 Jul 5.9 18:46:53 10° NE 18:49:15 15° ENE 18:49:58 14° E visible
31 Jul 3.8 20:22:19 10° NNW 20:26:01 47° WNW 20:26:01 47° WNW visible
01 Aug 5.6 18:47:41 10° NNE 18:50:34 18° ENE 18:50:50 18° ENE visible
01 Aug 4.3 20:23:39 10° NNW 20:26:54 36° WNW 20:26:54 36° WNW visible
02 Aug 5.4 18:48:35 10° NNE 18:51:44 22° ENE 18:51:44 22° ENE visible
02 Aug 4.7 20:25:01 10° NNW 20:27:47 27° WNW 20:27:47 27° WNW visible
03 Aug 5.2 18:49:34 10° NNE 18:52:39 26° ENE 18:52:39 26° ENE visible
03 Aug 5.1 20:26:27 10° NW 20:28:43 22° WNW 20:28:43 22° WNW visible
04 Aug 5.0 18:50:37 10° N 18:53:35 30° NE 18:53:35 30° NE visible
04 Aug 5.4 20:27:57 10° NW 20:29:39 17° WNW 20:29:39 17° WNW visible
05 Aug 4.9 18:51:42 10° N 18:54:32 33° NE 18:54:32 33° NE visible
05 Aug 5.7 20:29:33 10° NW 20:30:36 13° WNW 20:30:36 13° WNW visible
06 Aug 4.9 18:52:49 10° N 18:55:30 35° NNE 18:55:30 35° NNE visible
06 Aug 5.9 20:31:22 10° WNW 20:31:34 11° WNW 20:31:34 11° WNW visible
07 Aug 5.0 18:53:59 10° N 18:56:29 34° N 18:56:29 34° N visible
